Regional Weather Roundup
Issued by NWS

Home | Current Version | Previous Version | Text Only | Print | Product List | Glossary Off
Versions: 1 2 3 4 5 6 7 8 9 10 11 12 13 14 15 16 17 18 19 20 21 22 23 24 25 26 27 28 29 30 31 32 33 34 35 36 37 38 39 40 41 42 43 44 45 46 47 48 49 50

000
ASUS43 KDMX 041607
RWRIA

WEATHER ROUNDUP FOR IOWA
NATIONAL WEATHER SERVICE DES MOINES IA
1100 AM CDT SAT JUL 04 2015

NOTE: "FAIR" INDICATES FEW OR NO CLOUDS BELOW 12,000 FEET WITH NO
SIGNIFICANT WEATHER AND/OR OBSTRUCTIONS TO VISIBILITY.

* - THESE STATIONS ARE NOT NWS STATIONS...THUS NOT UNDER NWS
QUALITY CONTROL.  THEY ALSO DO NOT REPORT WEATHER SUCH
AS PRECIPITATION OR FOG.

IAZ001>003-012>014-020>022-031>034-043>046-041700-
   NORTHWEST IOWA

CITY           SKY/WX    TMP DP  RH WIND       PRES   REMARKS
CARROLL *      SUNNY     73  59  60 SW8       30.01S
CHEROKEE *     SUNNY     73  66  78 S9        29.99S
DENISON *      SUNNY     73  59  60 VRB6      29.99F
LE MARS *      SUNNY     73  66  78 S10       29.98F
ORANGE CITY *  SUNNY     72  63  73 S7        29.98F
SHELDON *      SUNNY     73  73 100 SW7       29.97S
SIOUX CITY     SUNNY     75  65  70 VRB7      29.97F
SPENCER        SUNNY     77  60  55 W9        29.99S
STORM LAKE *   SUNNY     73  63  68 SW7       30.01S
$$

IAZ055>058-069>071-079>083-090>094-041700-
   SOUTHWEST IOWA

CITY           SKY/WX    TMP DP  RH WIND       PRES   REMARKS
ATLANTIC *     SUNNY     73  59  60 SW7       30.02S
AUDUBON *      SUNNY     75  61  60 S6        30.03S
CLARINDA *     SUNNY     75  59  57 S7        30.04S
COUNCIL BLFS * SUNNY     73  61  64 CALM      30.02S
CRESTON *      SUNNY     73  57  56 S6        30.04S
HARLAN  *      SUNNY     73  61  64 S9        30.05S
LAMONI         SUNNY     75  58  55 CALM      30.03F
RED OAK *      SUNNY     75  61  60 S8        30.03S
SHENANDOAH *   SUNNY     77  61  57 S8        30.03S
$$

IAZ047>049-059>061-072>074-084-041700-
   CENTRAL IOWA

CITY           SKY/WX    TMP DP  RH WIND       PRES   REMARKS
AMES           SUNNY     75  59  57 W6        30.01S
ANKENY *       SUNNY     75  61  60 VRB3      30.02R
CHARITON *     SUNNY     73  59  60 CALM      30.03S
DES MOINES     MOSUNNY   77  60  55 S5        30.01F
GRINNELL*      SUNNY     73  61  64 S3        30.03F
KNOXVILLE *    SUNNY     73  59  60 SW3       30.02S
MARSHALLTOWN   SUNNY     74  60  61 S3        30.01F
PELLA *        SUNNY     75  63  64 CALM      30.03F
$$

IAZ004>006-015-016-023>025-035-036-041700-
   NORTH CENTRAL IOWA

CITY           SKY/WX    TMP DP  RH WIND       PRES   REMARKS
ALGONA *       SUNNY     75  61  60 S6        30.00S
CLARION *      SUNNY     75  59  57 SW9       30.00S
ESTHERVILLE    SUNNY     74  64  71 SW6       29.98F
FORT DODGE *   SUNNY     75  61  60 SW7       30.01F
MASON CITY     SUNNY     75  61  61 SW6       30.01S
FOREST CITY *  SUNNY     73  61  64 W5        30.00S
IOWA FALLS *     N/A     73  59  60 SW6       30.02S
$$

IAZ007>011-017>019-026>030-037>042-050>054-066-041700-
   NORTHEAST IOWA

CITY           SKY/WX    TMP DP  RH WIND       PRES   REMARKS
CEDAR RAPIDS   SUNNY     74  63  68 W6        30.01S
CHARLES CITY * SUNNY     73  64  73 VRB5      30.01S
CLINTON *      SUNNY     73  61  64 W5        30.05S
DECORAH *        N/A    N/A N/A N/A MISG        N/A
DUBUQUE        SUNNY     75  61  61 SW9       30.02R
MONTICELLO *   SUNNY     75  63  64 SW5       30.01S
OELWEIN *      SUNNY     73  63  68 SW7       30.02R
WATERLOO       SUNNY     75  59  57 W6        30.00S
$$

IAZ064-065-067-068-078-041700-
   EAST CENTRAL IOWA

CITY           SKY/WX    TMP DP  RH WIND       PRES   REMARKS
DAVENPORT      SUNNY     74  59  59 W5        30.03S
IOWA CITY      SUNNY     75  61  61 CALM      30.03S
MT. PLEASANT * SUNNY     79  54  41 S5        30.03S
MUSCATINE *    SUNNY     75  57  53 CALM      30.03S
QUAD CITIES    SUNNY     78  56  46 VRB3      30.02S
$$

IAZ062-063-075>077-085>089-095>099-041700-
   SOUTHEAST IOWA

CITY           SKY/WX    TMP DP  RH WIND       PRES   REMARKS
BURLINGTON     SUNNY     75  62  64 S6        30.03S
FAIRFIELD *    SUNNY     73  57  56 CALM      30.04R
FORT MADISON * SUNNY     73  63  68 CALM      30.04S
KEOKUK *       MOSUNNY   75  63  64 CALM      30.03S
OSKALOOSA *      N/A     73  59  60 CALM      30.04S
CENTERVILLE *  SUNNY     73  59  60 S3        30.05S
OTTUMWA        SUNNY     74  60  61 SW5       30.02S
WASHINGTON *   SUNNY     75  61  60 VRB3      30.05R
$$

ABBREVIATIONS USED IN REMARKS
   TC - TEMPERATURES IN CELSIUS
  WCI - WIND CHILL INDEX
   HX - HEAT INDEX
  VSB - VISIBILITY
$$




USA.gov is the U.S. government's official web portal to all federal, state and local government web resources and services.